Date,TemperatureHighF,TemperatureAvgF,TemperatureLowF,DewpointHighF,DewpointAvgF,DewpointLowF,HumidityHigh,HumidityAvg,HumidityLow,PressureMaxIn,PressureMinIn,WindSpeedMaxMPH,WindSpeedAvgMPH,GustSpeedMaxMPH,PrecipitationSumIn
2013-10-1,74,60,48,63,56,48,100,88,57,29.98,29.88,9,1,18,0.00
2013-10-2,75,64,54,66,61,54,100,90,69,29.95,29.84,10,2,22,0.00
2013-10-3,72,62,53,59,56,52,100,82,50,30.08,29.95,7,1,14,0.00
2013-10-4,68,58,50,62,56,49,100,93,66,30.10,30.04,2,0,7,0.00
2013-10-5,63,59,55,59,56,50,100,91,70,30.13,30.06,5,0,8,0.00
2013-10-6,56,52,48,56,50,46,100,96,78,30.25,30.13,6,0,12,0.11
2013-10-7,68,56,50,68,56,50,100,100,100,30.16,29.72,12,1,29,0.42
2013-10-8,59,52,44,54,48,43,100,88,64,30.37,29.88,12,2,22,0.00
2013-10-9,60,48,37,51,45,37,100,90,62,30.46,30.35,8,0,13,0.00
2013-10-10,64,51,40,58,49,40,100,94,67,30.36,30.18,3,0,8,0.00
2013-10-11,69,55,47,60,52,47,100,92,62,30.19,30.13,2,0,6,0.00
2013-10-12,56,52,47,56,52,47,100,100,100,30.40,30.18,6,1,13,0.00
2013-10-13,55,50,43,55,50,43,100,100,97,30.44,30.37,2,0,8,0.00
2013-10-14,65,55,44,61,54,44,100,96,78,30.37,30.23,7,1,10,0.00
2013-10-15,64,58,54,61,58,54,100,98,90,30.27,30.19,7,1,11,0.00
2013-10-16,59,55,51,58,55,51,100,99,91,30.18,29.89,8,1,13,0.00
2013-10-17,69,58,50,62,54,50,100,89,60,29.89,29.70,7,1,15,0.00
2013-10-18,62,54,49,58,52,44,100,93,69,29.86,29.60,13,2,21,0.19
2013-10-19,63,53,42,54,48,42,100,85,66,29.92,29.72,10,1,17,0.00
2013-10-20,58,51,44,52,44,38,100,79,51,29.96,29.65,10,3,22,0.00
2013-10-21,61,50,38,51,45,38,100,85,64,30.06,29.94,6,0,13,0.00
2013-10-22,53,48,39,53,48,39,100,98,80,29.94,29.69,6,0,10,0.00
2013-10-23,51,44,38,45,40,38,100,88,67,29.74,29.56,8,0,12,0.00
2013-10-24,47,42,34,41,38,34,100,86,70,29.83,29.60,13,3,24,0.00
2013-10-25,45,39,34,40,35,33,100,89,69,30.08,29.83,13,2,24,0.00
2013-10-26,47,40,32,42,37,32,100,88,70,30.08,29.82,10,1,18,0.00
2013-10-27,52,44,36,43,39,34,98,83,59,29.99,29.75,10,2,20,0.00
2013-10-28,52,40,31,45,36,29,100,85,66,30.31,29.99,14,2,29,0.00
2013-10-29,44,35,26,32,28,24,100,78,47,30.41,30.31,8,0,12,0.00
2013-10-30,47,38,31,39,34,27,100,87,71,30.31,30.16,8,1,17,0.00
2013-10-31,56,41,34,56,41,34,100,100,100,30.21,29.72,1,0,14,0.32